Wind_Speed
86 88 95 101 108 111 115 119 123 129 130 114 97 84 73 63 58 53 46 40 35 30 25 23 21 19 18 20 22 26 29 34 37 38 41 44 47 49 53 56 57 58 62 65
86 89 95 101 108 111 114 119 129 133 134 119 106 93 84 72 64 57 51 46 40 35 29 26 23 20 18 18 19 21 24 27 31 35 38 40 43 45 48 51 53 53 57 57
85 87 94 100 106 110 117 122 127 131 139 128 119 103 92 81 70 62 56 50 45 40 34 29 25 23 20 18 17 17 19 22 24 27 32 36 39 41 44 46 49 48 51 54
83 86 92 99 106 112 116 120 126 130 137 138 128 110 100 88 76 66 59 53 47 44 39 34 30 27 23 20 18 17 17 18 21 23 25 29 33 37 40 41 44 44 48 51
82 85 92 96 103 111 115 118 125 130 135 141 132 120 105 94 81 70 62 56 52 45 41 36 32 29 26 23 20 18 17 16 18 20 22 26 27 30 34 38 41 41 43 47
80 84 92 96 103 110 113 116 123 129 131 137 137 126 109 100 88 75 63 57 53 48 43 40 35 30 28 26 24 21 19 18 17 16 18 21 23 27 30 32 36 40 41 43
79 83 92 95 104 107 114 117 121 126 129 133 137 128 116 103 91 80 69 58 52 49 46 42 39 33 29 27 26 24 21 19 17 17 17 16 18 20 24 28 33 38 41 43
79 83 91 95 101 107 114 117 120 124 128 132 135 129 120 105 93 83 71 61 52 49 46 43 40 38 34 29 27 25 24 22 20 18 17 17 18 19 20 24 28 33 38 42
78 84 90 96 99 106 113 117 120 123 125 131 134 131 123 109 97 86 74 64 53 47 44 42 39 36 36 32 29 26 25 24 22 21 20 20 21 21 22 25 27 30 34 40
77 83 90 95 98 105 112 116 120 122 124 128 135 135 127 114 99 87 75 65 56 47 43 41 38 37 35 33 32 31 30 28 26 25 24 22 22 22 25 26 29 32 34 37
78 82 89 93 97 103 109 115 117 121 127 127 133 138 129 118 101 90 78 67 58 49 43 40 38 35 34 33 31 31 31 31 31 30 29 29 29 30 29 29 31 33 36 39
77 82 89 92 97 102 107 113 116 120 126 128 131 135 135 122 104 93 79 69 61 51 45 40 39 36 34 34 33 31 31 30 31 32 30 30 32 31 33 32 32 33 36 41
78 83 89 93 97 102 106 112 115 118 124 128 133 132 138 126 109 94 81 71 65 55 48 42 39 38 35 34 34 34 33 32 32 33 37 35 33 35 36 36 35 35 35 37
77 83 90 94 98 102 105 111 116 118 122 127 132 132 136 130 113 96 82 72 66 57 50 44 40 39 37 35 33 32 32 35 37 37 40 45 43 41 41 42 41 40 40 38
77 83 89 96 100 103 105 110 115 117 122 126 131 132 137 131 116 97 84 73 67 59 51 46 41 41 39 37 37 35 34 36 40 43 44 44 45 44 47 47 46 45 46 45
77 84 91 95 101 104 106 108 113 117 121 124 130 131 135 127 120 97 86 76 69 61 53 48 43 42 39 37 38 37 35 36 40 44 48 44 42 41 43 45 46 45 45 46
80 86 91 95 102 106 108 109 113 117 121 123 128 131 134 126 122 99 88 78 71 63 55 50 45 44 41 38 39 38 39 40 41 44 46 48 42 45 47 46 46 45 43 42
82 86 92 98 102 106 108 110 114 118 119 124 130 132 131 130 118 103 91 80 73 65 57 52 47 45 43 41 41 41 45 48 48 50 49 46 45 46 46 46 46 44 42 41
83 88 93 98 103 106 107 110 114 118 119 124 132 135 134 130 122 104 93 83 75 67 58 53 48 47 43 42 42 43 46 51 53 55 53 51 48 48 48 48 47 45 41 40
84 89 94 99 102 105 106 110 114 116 117 125 130 134 136 129 123 105 94 84 77 70 62 56 50 47 46 43 43 44 47 49 50 55 56 54 51 51 49 49 46 43 42 41
85 91 97 100 102 107 107 111 115 117 122 128 133 138 138 132 121 106 94 84 78 71 64 58 53 50 47 44 44 44 45 48 49 52 53 52 51 51 49 48 46 43 40 39
88 92 97 101 104 107 109 113 117 119 124 131 136 139 142 132 120 105 95 85 79 72 66 60 55 50 48 45 44 44 46 50 51 52 54 52 52 51 49 48 46 42 40 38
91 94 99 101 106 110 112 115 119 121 127 131 139 139 143 134 120 106 95 86 79 73 66 61 56 52 50 47 45 45 46 50 52 52 55 53 52 50 50 49 46 43 41 38
92 96 98 103 108 111 114 116 121 124 128 132 139 142 145 135 121 106 95 87 80 74 68 63 57 53 51 48 46 47 48 51 53 53 56 55 54 52 51 50 49 46 42 40
94 98 100 105 110 113 114 119 123 127 131 133 139 144 143 133 119 105 94 87 80 74 68 62 57 53 51 49 46 47 48 51 54 53 56 57 55 54 52 52 50 46 43 41
95 98 102 107 112 114 115 120 123 128 133 136 143 147 139 130 116 104 93 87 80 74 68 63 58 54 50 49 45 45 47 50 53 53 55 57 55 54 53 52 51 48 44 41
95 99 103 108 112 114 116 120 124 130 134 139 145 146 137 131 116 102 93 86 80 73 68 63 58 53 50 48 44 44 45 48 52 52 54 56 55 54 53 50 50 50 45 42
Wind_Direction
344 348 348 348 349 350 349 354 360 2 6 8 8 8 7 6 6 5 4 2 357 353 346 336 327 315 300 285 276 270 263 255 251 247 246 246 246 244 245 246 245 244 244 243
344 349 349 350 351 351 350 357 2 3 6 8 9 9 11 8 8 8 7 6 4 359 353 346 339 331 319 305 290 276 269 266 260 253 248 246 246 246 245 245 245 243 244 245
345 350 350 352 353 353 354 1 3 4 7 8 10 9 10 9 8 8 8 9 8 5 1 356 348 342 334 323 309 294 282 270 263 260 255 251 248 247 247 246 246 243 243 243
346 349 351 355 354 354 356 3 4 4 5 7 9 8 8 8 7 7 7 8 8 8 6 1 357 351 344 338 328 315 301 288 277 268 261 256 253 252 250 249 248 246 244 244
347 347 350 353 355 357 359 2 5 4 6 7 7 8 8 7 7 6 5 5 6 7 6 4 3 359 354 346 338 329 319 306 294 282 271 264 260 257 254 252 250 249 247 246
346 347 351 354 355 357 359 2 5 5 5 6 7 7 6 6 6 5 4 2 2 3 4 4 3 3 1 357 351 344 331 319 311 301 289 277 267 262 257 255 252 250 248 247
345 347 351 353 356 357 359 1 4 4 4 5 6 6 6 5 4 3 2 1 359 0 360 0 1 359 1 359 358 354 348 339 324 310 301 292 284 273 266 259 254 251 247 247
344 347 351 352 355 357 360 1 3 4 3 4 4 6 5 4 3 1 1 360 359 357 357 356 357 358 355 356 357 355 354 348 341 332 319 304 294 286 278 267 260 256 251 249
344 348 350 354 354 356 359 1 4 4 3 5 6 5 5 3 2 1 359 358 357 357 355 353 354 352 351 350 353 354 351 348 345 339 332 324 313 301 287 280 275 267 259 254
345 348 351 354 354 356 359 1 3 3 3 3 5 5 4 2 0 360 359 357 356 355 354 352 350 348 348 347 350 349 348 344 341 338 331 325 315 304 297 294 286 279 270 265
345 348 350 354 355 356 358 0 2 2 3 2 3 4 4 2 0 359 358 357 356 354 353 351 349 345 345 345 344 345 342 341 338 336 333 329 323 314 306 297 289 284 278 275
347 348 351 352 354 355 357 359 1 2 2 2 2 2 3 0 359 358 357 357 356 354 352 351 349 346 344 344 342 342 338 335 333 328 328 329 323 317 310 299 293 287 283 279
348 349 351 353 354 354 356 358 359 360 1 1 2 1 2 0 359 358 357 356 356 354 352 351 349 346 343 344 343 339 336 333 333 331 330 331 329 324 316 311 306 299 290 280
347 350 352 353 353 353 354 356 358 359 359 360 360 360 0 359 359 357 356 356 356 355 353 351 349 346 343 343 342 340 338 336 335 338 338 335 332 328 321 317 314 309 302 296
347 348 351 353 353 353 354 356 356 358 358 359 358 359 358 358 359 357 356 356 355 355 353 351 349 348 343 342 343 344 342 341 341 341 340 338 330 327 322 318 315 312 308 303
347 348 350 352 353 353 354 355 355 357 358 357 357 357 357 359 358 357 357 356 355 354 353 352 350 349 345 343 342 340 340 343 346 343 338 336 329 325 322 319 316 312 306 301
347 349 350 351 353 353 355 355 355 356 356 356 356 356 356 357 357 357 357 356 355 354 353 352 351 350 346 345 342 340 342 345 346 345 340 336 335 331 329 324 319 316 311 305
348 349 350 351 351 352 355 355 354 356 355 356 355 358 356 357 357 356 357 356 356 354 353 352 352 351 347 345 345 345 346 345 346 346 344 341 336 333 330 326 323 319 313 308
348 348 349 350 350 351 354 355 355 355 354 355 356 357 357 357 356 357 357 355 355 353 352 352 351 351 348 347 347 349 348 346 343 344 344 342 341 339 335 332 328 323 319 314
346 346 348 348 349 350 352 353 355 354 354 355 355 356 356 355 355 355 356 355 354 353 352 352 351 351 350 349 350 350 347 346 343 344 345 345 343 340 337 335 332 329 324 319
346 345 347 348 348 350 352 351 353 353 355 356 355 356 355 355 354 354 355 354 354 352 351 351 350 352 350 348 349 348 345 347 345 346 348 346 344 341 339 339 336 333 330 324
344 345 346 347 347 350 351 350 351 351 353 354 354 355 355 354 352 353 354 353 353 352 349 349 349 349 348 349 348 346 346 348 347 348 350 349 346 343 343 343 340 337 335 333
343 343 344 344 346 348 350 350 351 350 351 352 353 354 353 353 352 352 352 352 352 351 349 347 348 348 347 348 347 346 346 348 348 349 351 352 349 347 346 347 345 343 341 338
341 342 343 342 345 347 348 348 349 348 348 350 353 352 352 351 351 350 350 350 350 349 348 346 346 347 346 346 346 345 346 347 347 351 353 354 352 351 350 350 350 348 346 344
339 341 341 341 344 345 347 346 348 346 348 349 350 350 350 351 349 348 349 348 348 348 346 345 344 346 345 345 345 345 346 347 348 351 354 355 354 354 354 352 353 351 350 350
338 339 340 341 343 344 345 345 346 346 347 348 349 349 349 350 348 347 347 346 346 345 345 344 343 344 344 344 345 344 345 346 349 352 354 356 355 356 357 355 354 355 354 353
335 337 338 339 342 344 344 344 345 345 346 348 348 349 349 348 347 346 345 345 344 343 342 342 341 341 342 343 344 343 344 347 349 351 355 356 357 357 357 359 358 357 356 355
Height
10550 10530 10511 10489 10464 10436 10410 10380 10350 10307 10273 10247 10224 10199 10177 10162 10145 10133 10123 10115 10107 10101 10096 10091 10087 10083 10079 10077 10075 10075 10074 10075 10077 10080 10082 10084 10088 10091 10093 10095 10101 10106 10107 10111
10544 10525 10505 10483 10460 10434 10406 10372 10333 10305 10275 10248 10220 10197 10176 10161 10147 10134 10122 10113 10104 10097 10092 10087 10082 10078 10074 10071 10069 10067 10066 10066 10067 10068 10070 10072 10074 10077 10079 10081 10083 10089 10092 10098
10538 10521 10501 10479 10453 10427 10398 10363 10334 10308 10276 10242 10218 10196 10179 10163 10149 10136 10124 10114 10105 10097 10090 10084 10078 10074 10070 10066 10064 10061 10059 10058 10058 10059 10059 10061 10062 10064 10065 10067 10070 10075 10078 10080
10534 10516 10498 10476 10452 10426 10399 10366 10338 10307 10275 10247 10223 10200 10181 10166 10150 10139 10128 10117 10107 10098 10090 10083 10076 10071 10067 10063 10059 10056 10053 10051 10050 10050 10050 10049 10051 10053 10053 10055 10057 10061 10063 10065
10529 10512 10494 10474 10451 10426 10395 10368 10338 10309 10279 10252 10224 10203 10185 10170 10155 10140 10127 10117 10108 10099 10092 10085 10077 10070 10065 10060 10056 10053 10050 10047 10044 10042 10041 10041 10042 10042 10043 10045 10046 10049 10050 10051
10524 10508 10488 10468 10446 10422 10398 10371 10338 10310 10283 10257 10230 10209 10190 10172 10156 10143 10130 10118 10108 10100 10092 10085 10077 10071 10064 10059 10054 10049 10045 10042 10040 10037 10035 10033 10033 10032 10033 10033 10033 10035 10036 10037
10519 10503 10485 10465 10444 10420 10394 10367 10338 10313 10288 10263 10240 10215 10195 10175 10158 10143 10130 10118 10108 10099 10091 10083 10077 10070 10064 10059 10053 10048 10043 10039 10036 10033 10030 10028 10026 10024 10024 10023 10022 10021 10023 10023
10514 10498 10480 10461 10439 10416 10391 10366 10340 10315 10291 10266 10242 10217 10196 10177 10162 10146 10133 10120 10107 10097 10089 10081 10074 10067 10062 10056 10051 10046 10042 10037 10033 10029 10026 10023 10020 10017 10015 10014 10013 10012 10011 10011
10508 10492 10475 10456 10435 10413 10389 10365 10339 10315 10292 10269 10244 10222 10200 10181 10164 10147 10132 10119 10107 10097 10088 10080 10072 10067 10060 10054 10048 10044 10039 10035 10030 10027 10023 10019 10015 10011 10009 10006 10004 10002 10001 9999
10504 10488 10471 10452 10431 10410 10387 10363 10338 10314 10292 10268 10244 10222 10201 10182 10164 10148 10133 10119 10106 10095 10086 10079 10072 10064 10057 10051 10044 10039 10035 10031 10026 10022 10018 10015 10011 10007 10002 10000 9996 9992 9990 9987
10499 10483 10466 10448 10428 10408 10385 10361 10338 10315 10293 10269 10248 10225 10201 10182 10165 10148 10133 10119 10106 10094 10084 10076 10070 10062 10055 10049 10043 10037 10031 10026 10021 10016 10012 10008 10004 9998 9994 9991 9986 9982 9979 9975
10494 10478 10462 10444 10424 10405 10384 10362 10338 10315 10293 10271 10249 10226 10203 10182 10163 10147 10131 10117 10103 10092 10082 10073 10065 10059 10052 10045 10039 10033 10028 10023 10017 10011 10007 10003 9996 9990 9983 9979 9975 9971 9966 9962
10489 10473 10457 10440 10420 10401 10381 10359 10338 10317 10294 10272 10247 10224 10205 10184 10163 10146 10129 10114 10101 10088 10078 10069 10061 10054 10047 10041 10035 10028 10023 10016 10011 10005 9995 9991 9987 9979 9972 9966 9961 9955 9951 9947
10484 10469 10453 10435 10417 10398 10378 10357 10336 10314 10292 10272 10250 10228 10206 10184 10164 10144 10127 10112 10098 10085 10074 10065 10057 10049 10042 10036 10031 10026 10019 10011 10002 9996 9988 9976 9969 9965 9959 9951 9945 9940 9934 9931
10478 10464 10448 10430 10413 10394 10374 10354 10333 10312 10291 10269 10247 10227 10205 10184 10163 10144 10125 10110 10096 10083 10071 10062 10053 10045 10037 10030 10024 10018 10013 10006 9996 9986 9980 9974 9964 9956 9945 9936 9930 9923 9916 9909
10473 10458 10442 10425 10407 10389 10371 10351 10331 10310 10290 10270 10250 10228 10205 10180 10162 10142 10124 10107 10093 10081 10069 10059 10050 10042 10034 10026 10019 10013 10008 10002 9992 9982 9972 9968 9958 9950 9940 9928 9919 9912 9904 9896
10467 10452 10437 10419 10401 10384 10365 10345 10326 10307 10287 10270 10250 10227 10204 10181 10159 10138 10120 10105 10090 10077 10066 10055 10046 10037 10029 10022 10015 10008 10000 9994 9987 9978 9967 9955 9948 9936 9925 9916 9907 9899 9891 9883
10462 10447 10431 10414 10397 10380 10362 10343 10322 10301 10284 10265 10245 10225 10201 10178 10157 10135 10118 10101 10087 10074 10062 10051 10041 10032 10024 10016 10009 10000 9989 9981 9974 9966 9958 9949 9938 9927 9917 9906 9894 9886 9878 9870
10456 10441 10426 10410 10393 10376 10360 10341 10321 10301 10282 10262 10241 10217 10196 10174 10149 10130 10114 10098 10083 10070 10059 10048 10037 10028 10019 10011 10002 9993 9984 9974 9963 9956 9947 9937 9927 9916 9904 9893 9882 9871 9864 9857
10449 10435 10421 10406 10390 10373 10356 10337 10321 10303 10283 10259 10236 10214 10188 10166 10144 10126 10108 10093 10079 10067 10055 10043 10033 10024 10014 10005 9996 9988 9980 9972 9962 9950 9937 9926 9917 9906 9896 9883 9873 9863 9852 9844
10443 10428 10412 10398 10383 10367 10350 10331 10313 10294 10273 10254 10228 10204 10183 10161 10140 10121 10105 10089 10075 10062 10051 10040 10028 10017 10008 10000 9992 9985 9978 9969 9959 9948 9936 9923 9911 9900 9888 9876 9864 9853 9844 9834
10434 10420 10405 10390 10375 10361 10343 10323 10303 10284 10264 10243 10222 10200 10179 10157 10136 10117 10099 10085 10071 10059 10047 10036 10025 10015 10005 9996 9988 9981 9972 9963 9952 9942 9930 9918 9905 9892 9881 9869 9856 9846 9836 9826
10424 10410 10396 10383 10367 10350 10332 10314 10293 10273 10255 10235 10215 10194 10175 10152 10131 10111 10096 10080 10066 10053 10042 10032 10021 10010 10000 9990 9982 9975 9966 9957 9947 9936 9924 9912 9900 9887 9874 9862 9850 9839 9828 9819
10415 10404 10389 10373 10357 10340 10323 10303 10285 10267 10248 10229 10209 10185 10167 10144 10123 10105 10090 10075 10061 10047 10036 10025 10014 10004 9995 9985 9976 9967 9959 9951 9941 9930 9918 9905 9893 9881 9868 9856 9844 9832 9821 9811
10405 10392 10378 10363 10347 10330 10313 10295 10277 10260 10242 10221 10202 10181 10158 10136 10117 10099 10083 10069 10056 10043 10032 10021 10009 9999 9990 9980 9971 9963 9954 9945 9935 9924 9913 9901 9889 9876 9863 9851 9840 9828 9817 9807
10396 10382 10368 10354 10339 10322 10306 10288 10271 10253 10233 10212 10192 10172 10150 10130 10110 10092 10076 10063 10049 10037 10026 10015 10005 9995 9985 9977 9967 9958 9950 9941 9931 9920 9909 9898 9886 9873 9861 9849 9837 9825 9814 9804
10388 10374 10361 10347 10331 10315 10298 10281 10264 10244 10223 10203 10183 10159 10139 10119 10102 10085 10069 10055 10042 10031 10020 10011 10000 9990 9980 9971 9963 9955 9947 9938 9929 9918 9906 9895 9884 9871 9859 9848 9836 9823 9812 9801